This is the latest recevied weather packets stored in our database for station/object WX0ABE-13. If no packets are shown the sender has not sent any weather packets the latest 10 day(s).
| Time | Temp. | Humidity | Pressure | Rain* | Wind** | Luminosity | Snow |
|---|---|---|---|---|---|---|---|
| 1787684059 | 30° C | 41% | 1023 hPa | 0 mm | - | 705 W/m² | - |
| 1787683756 | 30° C | 42% | 1023.2 hPa | 0 mm | - | 778 W/m² | - |
| 1787683453 | 30° C | 42% | 1023.2 hPa | 0 mm | - | 294 W/m² | - |
| 1787683148 | 30° C | 45% | 1023.5 hPa | 0 mm | - | 358 W/m² | - |
| 1787682845 | 30° C | 43% | 1023.2 hPa | 0 mm | - | 456 W/m² | - |
| 1787682541 | 30.56° C | 44% | 1023.3 hPa | 0 mm | - | 833 W/m² | - |
| 1787682236 | 30° C | 44% | 1023.5 hPa | 0 mm | - | 785 W/m² | - |
| 1787681932 | 29.44° C | 42% | 1023.5 hPa | 0 mm | - | 754 W/m² | - |
| 1787681631 | 28.89° C | 44% | 1023.8 hPa | 0 mm | - | 505 W/m² | - |
| 1787681326 | 28.89° C | 45% | 1023.5 hPa | 0 mm | - | 381 W/m² | - |
| 1787681022 | 28.33° C | 47% | 1023.6 hPa | 0 mm | - | 806 W/m² | - |
| 1787680722 | 27.78° C | 46% | 1023.7 hPa | 0 mm | - | 718 W/m² | - |
| 1787680421 | 27.22° C | 48% | 1023.6 hPa | 0 mm | - | 698 W/m² | - |
| 1787680120 | 28.33° C | 46% | 1023.7 hPa | 0 mm | - | 685 W/m² | - |
| 1787679815 | 28.33° C | 45% | 1023.8 hPa | 0 mm | - | 664 W/m² | - |
| 1787679514 | 27.78° C | 48% | 1023.7 hPa | 0 mm | - | 649 W/m² | - |
| 1787679211 | 27.22° C | 50% | 1024 hPa | 0 mm | - | 647 W/m² | - |
| 1787678905 | 26.67° C | 51% | 1024 hPa | 0 mm | - | 672 W/m² | - |
| 1787678605 | 26.11° C | 51% | 1024 hPa | 0 mm | - | 422 W/m² | - |
| 1787678300 | 26.11° C | 53% | 1024.2 hPa | 0 mm | - | 367 W/m² | - |
| 1787677995 | 26.11° C | 52% | 1024 hPa | 0 mm | - | 304 W/m² | - |
| 1787677690 | 26.11° C | 53% | 1024 hPa | 0 mm | - | 557 W/m² | - |
| 1787677389 | 25° C | 57% | 1023.9 hPa | 0 mm | - | 256 W/m² | - |
| 1787677089 | 25° C | 58% | 1024.1 hPa | 0 mm | - | 195 W/m² | - |
| 1787676784 | 25° C | 56% | 1024.5 hPa | 0 mm | - | 220 W/m² | - |
* Rain latest hour (hover to see other rain measurements)
** Current wind speed in m/s (hover to see current wind gust speed)